Tracking 35237 objects as of 5-Sep-2026
HD Live streaming from Space Station
objects crossing your sky now

AAC-IO1

Track AAC-IO1 now!
10-day predictions


NORAD ID: 68498
Int'l Code: 2026-067CL
Launch date: March 30, 2026
Source: United Kingdom (UK)
Launch site: AIR FORCE WESTERN TEST RANGE (AFWTR)
Your satellite tracking list
Your tracking list is empty




NASA's NSSDC Master Catalog

Two Line Element Set (TLE):
1 68498U 26067CL  26246.81890564  .00001387  00000-0  14274-3 0  9997
2 68498  97.7625 203.7343 0003242 130.4870 229.6632 14.91899616 23446
Source of the keplerian elements: AFSPC